Weather History for Plattsburgh, NY

Change the Weather History Date:

Wednesday, September 5, 2012

  Actual Average Record
Temperature  
Mean Temperature 70 °F 63 °F  
Max Temperature 78 °F 75 °F 95 °F (1959)
Min Temperature 62 °F 52 °F 39 °F (1963)
Degree Days  
Heating Degree Days 0 3  
Month to date heating degree days 5 15  
Since 1 July heating degree days 22 56  
Cooling Degree Days 5 2  
Month to date cooling degree days 9 10  
Year to date cooling degree days 480 332  
Growing Degree Days 20 (Base 50)    
Moisture  
Dew Point 64 °F    
Average Humidity 80    
Maximum Humidity 100    
Minimum Humidity 60    
Precipitation  
Precipitation 1.57 in - 1.57 in (2012)
Month to date precipitation 2.57  
Year to date precipitation 18.82  
Sea Level Pressure  
Sea Level Pressure 29.77 in    
Wind  
Wind Speed 7 mph (North)    
Max Wind Speed 20 mph    
Max Gust Speed 24 mph    
Visibility 7 miles    
Events Rain    
T = Trace of Precipitation, MM = Missing Value Source: NWS Daily Summary

Daily Weather History Graph

Daily Weather History Graph

Search for Another Location

Airport:

Trip Planner

Search our weather history database for the weather conditions in past years. The results will help you decide how hot, cold, wet, or windy it might be!

Date:

Astronomy

Sep. 05, 2012 Rise Set
Actual Time 6:21 AM EDT 7:22 PM EDT
Civil Twilight 5:51 AM EDT 7:52 PM EDT
Nautical Twilight 5:16 AM EDT 8:27 PM EDT
Astronomical Twilight 4:38 AM EDT 9:04 PM EDT
Moon 9:34 PM EDT (9/5) 11:38 AM EDT (9/5)
Length of Visible Light 14h 00m
Length of Day
13h 00m
Waning Gibbous, 76% of the Moon is Illuminated
Sep 5
Waning Gibbous
Sep 8
Last Quarter
Sep 15
New
Sep 22
First Quarter
Sep 29
Full

Hourly Weather History & Observations

Time (EDT) Temp. Dew Point Humidity Pressure Visibility Wind Dir Wind Speed Gust Speed Precip Events Conditions
12:12 AM 66.2 °F 64.4 °F 94% 29.78 in 6.0 mi NE 11.5 mph 23.0 mph 0.05 in Rain Rain
12:45 AM 64.4 °F 64.4 °F 100% 29.75 in 2.5 mi NNE 11.5 mph - 0.16 in Rain Heavy Rain
12:53 AM 66.0 °F 64.0 °F 93% 29.74 in 2.5 mi NNE 15.0 mph - 0.18 in Rain Heavy Rain
1:03 AM 66.2 °F 64.4 °F 94% 29.74 in 4.0 mi NNE 13.8 mph - 0.03 in Rain Rain
1:53 AM 66.0 °F 64.0 °F 93% 29.70 in 4.0 mi NNE 15.0 mph 20.7 mph 0.19 in Rain Rain
2:19 AM 66.2 °F 64.4 °F 94% 29.68 in 2.0 mi NNE 17.3 mph 21.9 mph 0.08 in Rain Heavy Rain
2:28 AM 66.2 °F 64.4 °F 94% 29.68 in 2.5 mi North 16.1 mph - 0.10 in Rain Heavy Rain
2:39 AM 66.2 °F 64.4 °F 94% 29.69 in 3.0 mi North 15.0 mph 24.2 mph 0.14 in Rain Heavy Rain
2:48 AM 66.2 °F 64.4 °F 94% 29.69 in 3.0 mi NNW 11.5 mph - 0.17 in Rain Heavy Rain
2:53 AM 66.0 °F 64.9 °F 96% 29.70 in 3.0 mi NNW 10.4 mph 19.6 mph 0.18 in Rain Heavy Rain
3:16 AM 64.4 °F 64.4 °F 100% 29.69 in 5.0 mi North 16.1 mph - 0.08 in Rain Rain
3:32 AM 64.4 °F 64.4 °F 100% 29.68 in 5.0 mi North 16.1 mph - 0.12 in Rain Rain
3:53 AM 66.0 °F 64.0 °F 93% 29.68 in 9.0 mi North 10.4 mph - 0.19 in Rain Light Rain
4:53 AM 64.9 °F 63.0 °F 93% 29.72 in 10.0 mi North 12.7 mph 24.2 mph 0.17 in   Overcast
5:37 AM 64.4 °F 62.6 °F 94% 29.74 in 10.0 mi NNW 15.0 mph 23.0 mph 0.11 in   Overcast
5:53 AM 64.9 °F 63.0 °F 93% 29.75 in 7.0 mi NNW 13.8 mph - 0.15 in   Overcast
6:53 AM 64.9 °F 63.0 °F 93% 29.77 in 10.0 mi North 10.4 mph - 0.13 in   Overcast
7:53 AM 66.0 °F 63.0 °F 90% 29.80 in 10.0 mi NW 11.5 mph - 0.12 in   Overcast
8:44 AM 66.2 °F 64.4 °F 94% 29.79 in 9.0 mi NNW 6.9 mph - 0.09 in Rain Light Rain
8:53 AM 66.9 °F 64.0 °F 90% 29.79 in 10.0 mi NW 3.5 mph - 0.11 in   Overcast
9:40 AM 69.8 °F 62.6 °F 78% 29.80 in 10.0 mi North 10.4 mph - 0.08 in   Overcast
9:53 AM 70.0 °F 63.0 °F 78% 29.81 in 10.0 mi North 8.1 mph - 0.10 in   Overcast
10:53 AM 72.0 °F 62.1 °F 71% 29.82 in 10.0 mi North 6.9 mph - 0.09 in   Overcast
11:53 AM 75.0 °F 60.1 °F 60% 29.83 in 10.0 mi North 11.5 mph - 0.07 in   Scattered Clouds
12:53 PM 73.9 °F 63.0 °F 68% 29.82 in 10.0 mi East 5.8 mph - 0.07 in   Mostly Cloudy
1:53 PM 75.9 °F 64.0 °F 67% 29.81 in 10.0 mi ENE 6.9 mph - 0.02 in   Mostly Cloudy
2:53 PM 77.0 °F 64.0 °F 64% 29.80 in 10.0 mi NNE 8.1 mph - 0.00 in   Scattered Clouds
3:53 PM 77.0 °F 64.9 °F 66% 29.80 in 10.0 mi ENE 8.1 mph - N/A   Partly Cloudy
4:53 PM 75.9 °F 64.9 °F 69% 29.80 in 10.0 mi SSE 6.9 mph - N/A   Partly Cloudy
5:53 PM 75.9 °F 64.0 °F 67% 29.80 in 10.0 mi SSW 3.5 mph - N/A   Partly Cloudy
6:53 PM 71.1 °F 64.9 °F 81% 29.80 in 10.0 mi Calm Calm - N/A   Clear
7:53 PM 68.0 °F 64.9 °F 90% 29.83 in 10.0 mi WSW 3.5 mph - N/A   Clear
8:53 PM 66.9 °F 64.9 °F 93% 29.84 in 10.0 mi West 3.5 mph - N/A   Clear
9:53 PM 66.9 °F 64.0 °F 90% 29.84 in 10.0 mi West 3.5 mph - N/A   Clear
10:53 PM 64.0 °F 63.0 °F 96% 29.82 in 7.0 mi Calm Calm - N/A   Clear
11:51 PM 62.6 °F 62.6 °F 100% 29.83 in 2.5 mi Calm Calm - N/A   Clear
11:53 PM 63.0 °F 62.1 °F 97% 29.83 in 4.0 mi Calm Calm - N/A   Clear